Wind_Speed
33 33 32 32 32 33 32 30 34 42 28 19 19 21 17 17 12 13 15 14 11 6 9 8 7 5 3 4 7 2 4 7 8 9 12 12 14 12 10 4 13 12 6 28 29 9 5
35 35 34 31 31 33 33 33 30 38 34 21 18 20 16 17 12 13 16 11 14 8 8 7 7 5 5 3 5 4 8 10 8 11 10 11 13 19 6 7 12 8 20 13 30 22 3
33 37 35 36 33 29 32 31 32 30 38 25 18 18 16 16 12 14 12 11 15 9 8 6 6 6 8 11 5 8 8 9 10 9 8 10 15 12 11 4 22 27 5 10 20 22 2
29 31 34 39 37 35 35 33 32 32 34 31 18 17 15 15 14 14 12 10 1 4 6 7 5 6 6 2 4 6 10 11 8 10 10 8 6 11 5 8 5 10 6 11 15 18 11
32 32 32 34 38 40 41 37 30 32 31 33 21 16 14 15 13 13 11 2 3 2 3 3 3 3 7 4 9 8 9 7 11 9 7 5 7 6 6 8 8 7 5 12 6 22 7
33 35 34 35 36 31 31 38 37 35 31 30 24 14 15 13 12 10 3 6 6 6 4 3 4 5 3 7 11 15 9 7 12 10 9 5 4 4 1 9 9 12 4 6 7 10 16
36 37 37 36 36 36 31 31 32 34 29 30 23 12 13 12 10 5 9 10 6 2 4 2 5 5 9 9 8 4 6 10 10 6 2 4 3 6 5 4 3 13 5 10 4 11 10
36 37 38 38 39 38 33 32 27 30 36 31 24 12 12 10 7 7 13 7 6 3 2 5 4 8 6 7 5 6 9 4 2 2 2 3 2 7 7 2 3 12 9 12 14 16 6
39 42 40 40 41 36 35 31 29 23 35 31 28 11 10 8 6 10 13 10 8 6 1 3 4 4 5 7 4 5 5 6 3 3 4 3 6 9 5 3 8 4 13 8 14 7 5
39 41 40 40 39 39 36 34 32 26 37 34 26 9 9 8 8 14 13 9 8 5 4 5 1 1 3 5 4 6 3 4 2 1 4 3 8 9 5 7 8 4 4 17 19 4 3
40 41 41 41 38 41 37 35 37 23 38 35 23 9 9 14 10 14 8 11 10 4 5 2 2 5 3 3 7 4 5 3 5 4 4 2 8 6 6 3 1 3 14 14 13 7 3
39 41 40 41 41 38 40 37 37 26 36 34 22 12 13 18 16 12 11 12 11 5 3 4 2 2 2 3 2 5 2 3 6 3 10 5 2 4 4 3 7 9 18 13 6 3 1
39 39 40 37 36 39 33 32 36 26 39 34 20 15 19 17 16 16 15 14 4 4 2 2 0 3 4 3 4 2 2 2 3 3 6 7 6 5 5 8 11 14 5 3 2 1 3
41 38 44 33 39 33 34 28 40 27 45 30 21 18 24 17 17 19 20 4 4 2 4 1 3 5 2 3 2 3 2 5 6 6 4 5 5 9 9 3 4 3 1 3 4 4 2
40 36 37 38 41 43 32 28 24 33 41 29 27 27 22 18 18 22 7 3 7 6 6 7 3 1 3 2 2 4 4 3 4 5 4 3 4 5 7 4 3 3 5 0 5 2 4
38 33 38 42 48 47 35 12 19 46 38 35 35 25 21 20 21 16 3 4 2 3 5 4 5 3 1 1 2 4 5 3 3 2 2 2 5 4 4 3 6 2 3 1 2 3 1
35 34 36 40 44 50 16 11 33 46 38 38 33 12 21 20 19 5 3 5 5 6 5 5 5 4 4 2 1 2 4 4 4 5 5 3 4 3 2 4 3 4 3 5 4 3 3
33 36 37 40 48 33 15 16 45 46 42 38 14 4 25 24 4 3 3 5 4 4 2 2 4 3 5 3 3 3 2 2 5 3 3 1 4 3 1 3 1 0 3 3 4 2 2
32 35 39 43 38 28 15 45 51 44 46 32 9 10 19 23 3 2 3 3 2 3 3 3 3 4 2 4 4 2 2 4 6 5 2 1 2 3 6 5 5 3 2 4 4 3 2
28 32 33 42 37 9 28 46 46 45 46 22 10 4 5 10 2 3 3 4 4 5 3 3 3 2 3 4 5 3 2 1 3 4 4 3 3 4 5 3 3 2 0 1 4 3 2
27 27 33 37 38 8 26 48 45 48 38 10 5 4 8 6 8 4 1 5 5 4 1 5 2 3 4 3 3 3 2 1 3 6 3 3 3 3 2 1 2 1 2 4 4 4 4
25 24 31 30 26 17 34 46 47 47 31 6 7 6 7 5 14 6 1 6 5 3 3 3 5 3 4 4 4 5 5 1 1 4 3 3 1 2 4 6 1 2 4 4 4 4 6
19 23 26 25 11 32 38 40 44 44 28 4 6 13 10 7 5 6 5 6 7 6 5 4 8 5 5 4 6 8 5 4 2 4 2 3 3 2 2 4 4 3 2 3 2 2 3
14 18 19 13 5 21 24 34 47 38 24 2 6 9 5 2 4 5 7 4 8 3 6 3 6 5 5 11 11 10 11 11 9 7 3 3 3 2 1 4 2 5 3 4 5 4 5
12 15 14 22 14 23 25 34 45 36 27 3 10 3 4 3 4 3 7 6 13 12 5 5 5 7 15 6 4 4 4 3 3 5 5 2 3 3 2 1 5 1 1 1 2 5 3
11 14 10 9 6 12 29 32 42 38 31 4 5 5 4 9 1 3 5 9 5 4 3 3 8 11 5 3 3 3 4 4 2 1 3 4 5 3 1 2 3 4 2 2 2 4 4
12 8 5 7 9 17 28 29 28 36 35 10 2 3 4 9 5 4 3 5 7 6 4 3 4 3 2 2 2 2 3 3 3 5 4 2 3 3 2 2 6 4 4 1 1 4 17
11 6 4 3 7 13 24 24 22 25 28 17 6 1 3 8 10 5 6 5 7 7 4 7 4 1 3 2 3 3 2 4 2 3 4 5 5 3 2 2 6 5 2 0 4 12 17
15 7 12 16 18 10 22 25 21 22 22 16 9 4 5 8 12 16 14 11 9 8 9 8 2 3 4 4 1 2 1 1 3 2 1 1 4 4 6 4 1 4 4 8 12 16 19
Wind_Direction
297 302 301 299 301 301 303 307 306 286 282 289 298 303 314 316 303 299 307 297 296 274 274 293 293 291 274 256 260 286 309 294 301 250 283 271 228 224 239 208 222 242 251 211 242 321 272
295 292 297 302 299 296 299 303 303 299 275 281 291 298 310 314 308 296 298 296 294 244 263 285 282 279 276 274 220 246 284 297 290 274 295 280 232 221 247 243 200 215 227 249 223 257 215
315 300 288 288 294 298 297 297 300 297 276 275 287 291 304 308 306 297 296 273 282 222 239 277 269 270 275 262 254 274 289 312 305 305 278 282 230 204 202 287 239 240 231 219 198 235 271
323 320 318 296 282 289 297 301 298 293 289 270 277 288 301 302 304 298 291 292 254 216 222 255 242 262 262 244 258 260 299 304 307 310 303 252 208 212 202 263 185 181 251 207 193 209 251
320 322 320 316 309 287 283 292 297 290 294 268 272 284 297 297 306 304 282 207 135 174 194 201 213 255 271 275 271 267 305 297 303 304 298 236 231 202 167 239 187 165 194 207 176 183 254
322 323 320 315 316 311 288 282 289 292 283 284 263 279 286 293 307 303 189 141 131 121 138 160 221 281 257 304 296 279 280 290 290 286 285 254 208 152 216 202 184 174 181 141 210 170 178
321 320 318 316 309 313 300 293 279 298 281 268 254 268 283 288 302 253 154 136 126 178 202 222 256 267 297 308 301 292 274 300 278 265 248 228 240 203 223 176 280 152 162 153 140 129 170
317 316 317 316 317 309 305 285 286 277 272 260 255 256 275 285 278 187 165 171 176 168 192 237 272 268 295 301 296 292 280 299 238 282 252 221 212 209 168 208 306 175 162 168 146 159 117
312 314 312 313 310 311 308 289 290 301 261 254 250 247 263 266 222 180 168 164 175 172 124 244 290 281 310 315 296 316 339 335 261 260 224 204 147 149 134 272 248 176 158 142 131 138 95
309 308 309 308 305 308 300 288 283 303 254 248 242 227 241 200 166 160 168 182 184 169 68 300 316 291 324 317 286 300 297 224 185 283 232 95 137 132 174 238 176 115 153 119 124 111 85
305 305 304 306 301 300 298 284 274 307 244 241 233 205 220 176 170 161 174 173 174 163 60 266 337 341 324 305 311 25 307 280 304 103 232 6 134 132 186 7 199 124 113 106 90 73 139
304 303 300 298 298 297 293 277 281 289 231 229 221 190 200 173 166 158 168 158 146 47 263 355 338 10 335 282 244 300 266 281 312 18 74 63 333 15 357 333 103 97 88 66 65 73 265
301 297 294 291 295 294 290 283 278 290 222 218 190 188 186 170 169 161 160 146 47 118 316 282 32 10 338 285 310 289 335 44 46 50 19 34 4 345 27 51 50 107 102 93 72 94 232
303 299 298 295 297 292 295 288 267 281 212 197 163 175 161 165 163 162 156 64 92 177 193 117 75 326 302 336 282 328 11 35 29 53 58 44 15 3 343 61 110 37 132 106 132 173 171
302 301 305 302 305 307 299 286 241 208 194 164 155 157 161 160 162 159 160 89 206 204 164 145 56 37 308 320 307 28 53 41 38 38 103 115 44 322 29 35 25 331 37 43 113 36 73
305 305 309 313 312 308 311 259 260 198 178 161 152 153 160 160 159 161 86 237 230 179 126 101 142 205 306 282 33 24 17 349 5 35 200 129 77 346 339 56 330 65 145 328 32 130 184
306 308 308 302 306 321 294 227 205 188 167 161 146 135 158 160 155 151 184 221 231 186 154 129 167 150 218 223 53 73 354 347 10 339 52 108 83 284 354 17 93 354 27 44 79 67 138
308 308 308 306 318 325 251 258 197 179 154 153 136 100 158 157 127 181 188 194 184 142 181 116 115 149 169 166 55 81 95 325 330 303 56 2 107 75 110 294 276 64 122 115 112 220 73
310 313 315 324 331 330 229 189 194 171 157 151 98 96 162 167 151 220 266 193 130 128 175 152 148 214 178 142 99 90 50 313 340 33 79 86 26 65 359 358 348 30 22 97 89 59 204
315 313 328 328 342 241 179 185 188 168 157 157 121 121 147 203 237 159 156 164 126 153 156 187 130 130 99 66 42 126 106 283 359 31 39 96 95 142 170 185 136 134 235 122 93 91 182
318 326 335 333 354 215 186 197 182 160 156 155 111 149 166 177 200 185 98 156 130 148 211 186 57 127 127 104 83 103 92 2 4 5 40 80 77 58 71 63 107 131 195 165 155 184 166
321 332 342 356 11 189 194 184 160 157 166 137 126 140 139 130 153 134 221 204 152 122 136 171 136 136 113 136 163 175 132 181 205 15 46 21 82 74 26 23 245 284 267 238 203 202 252
321 340 354 356 26 170 177 166 155 166 169 112 107 131 133 137 127 131 193 177 176 130 34 127 151 103 86 147 113 106 88 141 135 130 82 64 110 53 316 336 326 346 248 222 256 210 195
331 341 351 5 359 183 163 158 163 173 173 109 133 138 115 137 139 182 153 146 147 147 133 62 121 100 137 127 99 82 65 69 77 41 66 112 90 84 210 11 26 250 299 237 221 255 214
333 340 359 6 41 170 177 163 172 180 185 110 151 79 103 103 116 99 109 113 101 83 72 79 52 117 140 110 64 44 357 26 36 29 21 71 115 80 106 171 284 319 16 90 63 284 199
331 344 3 10 29 184 170 167 181 186 192 126 148 67 83 123 11 104 102 131 130 108 40 65 96 133 134 86 89 141 189 199 217 70 37 58 68 106 108 112 239 255 341 99 93 309 332
337 338 338 43 50 181 174 176 183 193 197 205 161 65 79 100 51 111 114 151 136 104 102 131 143 120 70 82 96 152 225 180 162 176 168 74 32 142 159 247 287 265 312 122 113 262 336
321 320 228 129 109 181 182 180 178 189 196 207 222 171 46 100 64 105 124 131 137 138 135 156 98 10 60 90 137 193 156 223 114 174 176 164 142 181 114 159 278 6 10 164 299 321 332
329 297 239 193 190 183 191 185 191 191 188 195 207 178 120 103 112 95 92 103 129 136 137 149 118 124 147 100 123 114 130 73 156 220 54 197 179 181 181 216 183 12 129 18 358 338 332
Height
1532 1528 1525 1523 1520 1518 1515 1511 1509 1504 1501 1501 1499 1498 1495 1492 1492 1491 1491 1489 1486 1486 1486 1486 1485 1485 1485 1484 1481 1481 1481 1480 1480 1479 1479 1478 1478 1479 1478 1476 1479 1477 1475 1474 1475 1477 1480
1526 1522 1519 1517 1514 1513 1510 1507 1504 1500 1496 1494 1494 1494 1491 1490 1488 1488 1488 1486 1484 1483 1483 1484 1483 1484 1483 1483 1478 1479 1479 1478 1477 1476 1475 1475 1473 1474 1475 1474 1475 1471 1474 1477 1477 1480 1477
1519 1516 1513 1510 1509 1506 1504 1501 1500 1495 1493 1490 1489 1489 1487 1486 1485 1484 1484 1483 1480 1480 1481 1482 1482 1482 1481 1479 1477 1477 1477 1476 1475 1473 1472 1470 1470 1472 1471 1472 1472 1472 1474 1475 1474 1477 1473
1514 1509 1507 1503 1501 1500 1498 1496 1494 1489 1488 1486 1485 1485 1484 1483 1482 1481 1481 1479 1478 1478 1480 1481 1480 1481 1478 1476 1476 1475 1475 1474 1473 1472 1470 1468 1469 1470 1470 1470 1468 1473 1475 1473 1470 1478 1481
1509 1503 1500 1497 1492 1491 1492 1491 1488 1486 1484 1481 1480 1480 1481 1480 1479 1477 1478 1478 1477 1477 1479 1479 1481 1481 1477 1475 1474 1473 1473 1472 1471 1470 1468 1467 1468 1469 1470 1471 1465 1468 1470 1466 1467 1474 1479
1504 1498 1495 1491 1487 1485 1484 1483 1482 1478 1477 1476 1475 1475 1477 1476 1475 1475 1476 1477 1477 1478 1479 1479 1480 1483 1476 1474 1473 1471 1471 1471 1469 1468 1467 1465 1463 1466 1469 1465 1456 1458 1466 1467 1464 1470 1478
1499 1494 1490 1487 1483 1479 1477 1475 1474 1475 1469 1470 1469 1471 1473 1473 1472 1472 1476 1477 1481 1481 1478 1478 1477 1475 1472 1472 1469 1467 1468 1468 1466 1467 1464 1464 1460 1458 1459 1459 1458 1454 1460 1470 1474 1471 1481
1494 1490 1485 1480 1477 1473 1469 1468 1467 1469 1464 1464 1465 1466 1469 1470 1470 1471 1474 1474 1475 1476 1476 1475 1474 1473 1471 1470 1467 1466 1466 1468 1465 1465 1464 1463 1457 1456 1457 1458 1457 1456 1459 1468 1474 1476 1477
1489 1483 1479 1475 1470 1465 1463 1461 1461 1462 1458 1457 1460 1461 1465 1467 1467 1469 1471 1473 1474 1474 1475 1474 1472 1471 1471 1469 1467 1464 1464 1464 1464 1463 1461 1457 1454 1455 1457 1459 1457 1453 1455 1458 1468 1476 1482
1481 1477 1473 1469 1465 1460 1456 1456 1455 1456 1454 1452 1454 1456 1462 1465 1469 1467 1470 1471 1473 1474 1487 1475 1472 1472 1470 1467 1466 1464 1464 1465 1463 1460 1455 1453 1454 1454 1460 1455 1450 1453 1451 1456 1466 1478 1479
1475 1470 1464 1461 1456 1452 1449 1449 1448 1447 1447 1445 1449 1453 1458 1462 1463 1465 1469 1470 1473 1475 1511 1470 1471 1470 1467 1468 1468 1465 1462 1460 1457 1455 1457 1455 1453 1456 1457 1452 1449 1453 1451 1456 1463 1480 1490
1466 1462 1457 1452 1448 1444 1442 1441 1441 1441 1442 1439 1442 1448 1455 1459 1461 1464 1467 1470 1475 1493 1501 1477 1470 1469 1469 1467 1466 1464 1462 1460 1458 1454 1454 1457 1455 1453 1455 1452 1449 1453 1462 1473 1482 1484 1495
1457 1453 1447 1443 1439 1435 1433 1431 1433 1434 1436 1433 1437 1446 1451 1456 1459 1462 1467 1471 1486 1498 1473 1473 1471 1469 1469 1467 1464 1463 1462 1460 1460 1458 1462 1462 1464 1460 1459 1457 1458 1462 1467 1483 1491 1494 1488
1447 1442 1436 1431 1428 1425 1423 1421 1420 1423 1426 1428 1434 1444 1448 1455 1457 1461 1467 1474 1497 1470 1475 1469 1470 1470 1471 1466 1463 1462 1459 1463 1460 1462 1471 1470 1481 1469 1467 1468 1470 1474 1469 1477 1484 1494 1493
1437 1433 1427 1421 1416 1413 1410 1410 1410 1413 1417 1423 1432 1442 1449 1453 1457 1462 1467 1486 1474 1467 1464 1469 1471 1473 1470 1466 1465 1463 1464 1467 1466 1465 1468 1479 1476 1472 1470 1469 1472 1472 1474 1479 1488 1496 1498
1427 1424 1419 1413 1407 1401 1397 1397 1401 1404 1411 1420 1425 1442 1449 1454 1458 1463 1468 1466 1465 1458 1460 1464 1470 1471 1469 1468 1467 1464 1469 1468 1467 1465 1465 1470 1481 1478 1473 1473 1474 1474 1475 1483 1490 1490 1488
1420 1415 1411 1405 1396 1389 1390 1393 1396 1401 1408 1420 1424 1442 1449 1453 1459 1463 1470 1466 1459 1457 1458 1462 1466 1471 1470 1466 1466 1468 1473 1469 1467 1466 1464 1468 1477 1484 1477 1479 1478 1474 1475 1480 1486 1497 1495
1413 1407 1402 1394 1384 1380 1379 1383 1390 1398 1405 1420 1427 1439 1448 1453 1459 1460 1462 1457 1454 1456 1458 1459 1460 1463 1466 1466 1467 1470 1472 1472 1467 1466 1468 1469 1478 1495 1482 1479 1479 1479 1481 1488 1503 1499 1517
1408 1401 1390 1381 1373 1368 1370 1377 1384 1394 1403 1414 1426 1440 1449 1452 1459 1458 1455 1453 1453 1457 1459 1460 1460 1461 1461 1464 1471 1472 1472 1470 1469 1468 1470 1470 1486 1506 1495 1489 1482 1481 1482 1487 1491 1498 1507
1404 1398 1389 1380 1369 1367 1372 1377 1385 1392 1403 1416 1422 1441 1451 1452 1452 1452 1451 1454 1456 1456 1458 1458 1458 1458 1460 1464 1467 1472 1474 1472 1470 1470 1470 1471 1483 1485 1498 1486 1486 1485 1483 1483 1490 1512 1498
1398 1392 1384 1375 1365 1364 1369 1378 1386 1394 1406 1416 1419 1431 1435 1444 1449 1450 1450 1452 1454 1456 1456 1457 1458 1458 1460 1466 1469 1473 1473 1473 1471 1471 1471 1474 1486 1491 1482 1482 1485 1484 1483 1486 1498 1487 1495
1395 1390 1384 1374 1363 1369 1373 1379 1389 1399 1409 1415 1418 1425 1433 1438 1443 1450 1451 1452 1453 1455 1456 1458 1459 1461 1462 1466 1467 1472 1473 1475 1473 1473 1474 1477 1493 1491 1490 1485 1483 1483 1483 1484 1486 1485 1485
1396 1391 1384 1382 1380 1380 1381 1387 1394 1404 1413 1416 1419 1422 1426 1440 1444 1449 1449 1451 1452 1454 1457 1456 1459 1463 1466 1468 1467 1469 1470 1471 1472 1475 1478 1480 1487 1494 1499 1492 1487 1493 1478 1481 1480 1481 1479
1398 1396 1392 1386 1385 1390 1394 1397 1402 1411 1417 1420 1421 1423 1425 1440 1442 1444 1445 1448 1452 1454 1457 1459 1461 1462 1468 1468 1470 1472 1472 1474 1475 1477 1477 1482 1487 1493 1505 1495 1510 1483 1478 1477 1478 1475 1477
1399 1397 1393 1389 1384 1391 1397 1401 1407 1414 1420 1423 1423 1424 1425 1439 1440 1443 1445 1448 1453 1456 1459 1461 1464 1465 1468 1470 1477 1481 1485 1479 1481 1482 1481 1480 1487 1497 1501 1506 1495 1476 1476 1477 1477 1477 1474
1400 1398 1396 1395 1396 1396 1399 1405 1410 1416 1422 1424 1425 1425 1426 1431 1444 1444 1446 1449 1455 1459 1463 1465 1467 1467 1469 1472 1478 1483 1491 1484 1486 1484 1484 1484 1486 1491 1505 1503 1496 1482 1477 1477 1477 1487 1475
1401 1398 1397 1397 1396 1399 1402 1408 1413 1418 1423 1426 1428 1428 1429 1434 1444 1445 1447 1450 1452 1457 1464 1466 1467 1469 1470 1476 1482 1488 1485 1482 1487 1487 1488 1492 1494 1498 1500 1500 1491 1480 1478 1477 1484 1489 1477
1398 1397 1398 1398 1399 1401 1404 1410 1415 1419 1423 1429 1432 1432 1432 1436 1446 1446 1448 1450 1453 1455 1461 1465 1468 1470 1473 1477 1481 1484 1486 1483 1484 1483 1485 1487 1497 1497 1502 1501 1503 1480 1479 1482 1486 1479 1479
1397 1394 1393 1396 1398 1400 1405 1411 1416 1420 1425 1431 1433 1434 1434 1435 1448 1450 1450 1452 1453 1455 1458 1463 1466 1466 1468 1475 1480 1481 1482 1486 1486 1487 1482 1485 1484 1487 1490 1488 1480 1480 1480 1482 1481 1480 1476